Location: Unspecified
(17.6330°N, 0.0000°E)
Time: 20:12:59
(UTC+00:00)

Envisat - Visible Passes

Search period start: 25 May 2019 00:00
Search period end: 04 June 2019 00:00
Orbit: 764 x 766 km, 98.2° (Epoch: 25 May)

Date Brightness Start Highest point End Pass type
(mag) Time Alt. Az. Time Alt. Az. Time Alt. Az.
25 May 3.5 18:56:50 10° S 19:01:50 64° WSW 19:06:52 10° NNW visible
26 May 5.9 20:02:47 10° WSW 20:04:11 11° W 20:05:35 10° W visible
27 May 4.8 19:22:54 10° SSW 19:27:21 31° W 19:31:49 10° NW visible
28 May 3.1 18:45:33 10° SSE 18:50:38 86° WSW 18:55:42 10° NNW visible
29 May 5.7 19:50:00 10° SW 19:52:55 15° W 19:55:51 10° WNW visible
30 May 4.3 19:11:22 10° S 19:16:07 42° W 19:20:54 10° NNW visible
01 Jun 5.4 19:37:56 10° SSW 19:41:40 21° W 19:45:25 10° NW visible
02 Jun 3.7 18:59:56 10° S 19:04:54 57° W 19:09:52 10° NNW visible
